User: anonymous   Login
Location: Unspecified
(0.0000°N, 0.0000°E)
Time: 16:04:15
(UTC+00:00)
Language:

Tubsat - Orbit

View from above orbital plane
View from above orbital plane
View from above satellite
View from above satellite

Ground track
Ground track

The orbit data is extracted from the following two-line orbital elements,

1 25757U 99029B   19078.47292008 -.00000037 +00000-0 +20907-5 0  9996
2 25757 098.4119 000.4736 0015322 138.4992 221.7369 14.51398873049359
Epoch (UTC): 19 March 2019 11:21:00
Eccentricity: 0.0015322
inclination: 98.4119°
perigee height: 710 km
apogee height: 732 km
right ascension of ascending node: 0.4736°
argument of perigee: 138.4992°
revolutions per day: 14.51398873
mean anomaly at epoch: 221.7369°
orbit number at epoch: 4935

The dashed part of the orbit path shows where the satellite is in the earth's shadow,  

DLR